LogoCoinalyze
    Ad-Free Version Home Markten Financieringspercentages
    Futures data
    • Aggregated data (Munten)
    • Individuele grafieken
    • Globale grafieken
    Meldingen
    TA
    Bitcoin Ethereum BNB Ripple Tron ZCash Dogecoin Monero UNUS SED LEO Chainlink Cardano Stellar Lumens Bitcoin Cash Litecoin Hedera Cronos Polkadot Ethereum Classic Algorand Cosmos Quant VeChain Dash Bitcoin SV BitTorrent Terra Tezos Decred Iota The Graph THETA MultiversX Decentraland NEO Chiliz Golem Basic Attention Token Horizen Qtum 0x DigiByte Beam RIF Token FTX Token FUNToken Holo aelf Ontology Zilliqa Nano Enjin Coin Ravencoin Mask Network Verge Siacoin Status WINk Waves IoTeX iExec RLC Power Ledger Steem Kyber Network Crystal Lisk Ark Ardor WOO Network IOST WAX Icon Storj Loopring Wanchain Bitcoin Diamond Augur AdEx Bitcoin Gold OmiseGO NEM MonaCoin BitShares Ren Komodo V Systems Nuls Mithril SOLVE EOS Aion Maker Nebulas HedgeTrade Bread Fetch.ai TomoChain Polygon Fantom Waltonchain GXChain Bytom Metaverse ETP MaidSafeCoin QASH
    Rangschikken op:
    Meer
    • API
    • Candlestick-patronen
    • Doneer
    • Contact
    • Sitemap
    • Privacy Policy
    • Disclaimer
    • Theme:
    Nederlands
    • English
    • Français
    • Русский
    • Deutsch
    • Türkçe
    • Português (BR)
    • Español
    • 한국어
    • 简体中文
    • 日本語
     
    Aanmelden / Registreren
    Markets/ Pepe/ PEPE naar USD/ PEPEUSD Bitstamp
    Trades
    WL
    Chat
    Stats
    Nieuws
    ⦷
    AAA
    0.00000373 342589.00000000 15:16:27
    0.00000373 1009179.00000000 15:16:15
    0.00000373 300000.00000000 15:16:13
    0.00000373 2650353.00000000 15:15:58
    0.00000372 280453.00000000 15:15:33
    0.00000372 284927.00000000 15:14:35
    0.00000372 796720.00000000 15:14:02
    0.00000372 10566286.00000000 15:13:24
    0.00000371 26544850.90000000 15:13:09
    0.00000371 7504268.10000000 15:13:09
    0.00000370 7504268.10000000 15:11:36
    0.00000370 7504200.00000000 15:11:36
    0.00000370 7504200.00000000 15:11:34
    0.00000370 68.10000000 15:11:31
    0.00000370 7504200.00000000 15:11:31
    0.00000371 2749482.00000000 15:11:28
    0.00000370 45090814.90000000 15:11:27
    0.00000370 7504268.10000000 15:11:27
    0.00000370 5354537.00000000 15:11:22
    0.00000370 102658298.90000001 15:11:05
    0.00000371 51562500.00000000 15:11:05
    0.00000371 7504268.10000000 15:11:05
    0.00000371 1000000.00000000 15:10:57
    0.00000371 7504268.10000000 15:10:47
    0.00000371 5495731.90000000 15:09:59
    0.00000371 4504268.10000000 15:09:59
    0.00000371 3000000.00000000 15:09:57
    0.00000370 6756756.00000000 15:09:54
    0.00000370 849637.00000000 15:09:31
    0.00000370 51562500.00000000 15:09:31
    0.00000373 26557356.00000000 15:08:55
    0.00000372 232824412.90000001 15:08:43
    0.00000372 7504268.10000000 15:08:43
    0.00000372 51562500.00000000 15:08:43
    0.00000372 7504268.10000000 15:08:37
    0.00000372 3809959.00000000 15:07:16
    0.00000373 7504268.10000000 15:07:06
    0.00000374 849637.00000000 15:06:45
    0.00000373 51562500.00000000 15:06:45
    0.00000374 528314.00000000 15:06:06
    0.00000374 7504268.10000000 15:06:05
    0.00000375 904337.00000000 15:06:03
    0.00000374 7504268.10000000 15:06:01
    0.00000372 68.10000000 15:05:17
    0.00000372 7504200.00000000 15:05:17
    0.00000373 260638.00000000 15:05:10
    0.00000374 1302441.00000000 15:04:33
    0.00000374 68.10000000 15:04:25
    0.00000374 7504200.00000000 15:04:25
    0.00000374 412500000.00000000 15:04:25
    0.00000374 61474900.00000000 15:04:25
    0.00000374 412500000.00000000 15:04:25
    0.00000374 3538800.00000000 15:04:25
    0.00000374 1716582700.00000000 15:04:25
    0.00000374 412500000.00000000 15:04:25
    0.00000374 243412200.00000000 15:04:25
    0.00000374 207646127.90000001 15:04:15
    0.00000374 7504268.10000000 15:04:15
    0.00000374 51562500.00000000 15:04:15
    0.00000374 1330247.00000000 15:04:13
    0.00000376 123696135.90000001 15:03:54
    0.00000375 7504268.10000000 15:03:54
    0.00000375 119529400.00000000 15:03:40
    0.00000375 26206068.00000000 15:03:35
    0.00000375 7504200.00000000 15:03:14
    0.00000375 82666.00000000 15:03:12
    0.00000376 40933231.90000000 15:03:12
    0.00000376 7504268.10000000 15:03:12
    0.00000376 51562500.00000000 15:03:12
    0.00000375 850433600.00000000 15:03:07
    0.00000376 257978.00000000 15:02:56
    0.00000375 7504200.00000000 15:02:53
    0.00000375 26666666.00000000 15:02:35
    0.00000376 662824.90000000 15:02:34
    0.00000376 7504268.10000000 15:02:34
    0.00000376 6644769.00000000 15:02:26
    0.00000376 7504268.10000000 15:02:21
    0.00000376 2837758.00000000 15:02:19
    0.00000376 68.10000000 15:02:16
    0.00000376 7504200.00000000 15:02:16
    0.00000376 77127.00000000 15:02:11
    0.00000375 472835.00000000 15:01:34
    0.00000375 6442087.80000000 15:01:22
    0.00000375 22668481.60000000 15:01:21
    0.00000375 25940038.00000000 15:01:20
    0.00000375 7504268.10000000 15:01:20
    0.00000375 558416.30000000 15:01:20
    0.00000375 51004083.70000000 15:01:19
    0.00000375 7504268.10000000 15:01:18
    0.00000374 13101604.00000000 15:01:17
    0.00000374 120320.00000000 15:00:59
    0.00000373 13404825.70000000 15:00:45
    0.00000373 13404825.70000000 15:00:45
    0.00000373 13404825.70000000 15:00:45
    0.00000373 3026800.00000000 15:00:42
    0.00000374 7504200.00000000 15:00:30
    0.00000374 68.10000000 15:00:28
    0.00000374 7504200.00000000 15:00:28
    0.00000376 922091.00000000 15:00:17
    0.00000376 2613692.00000000 15:00:15
    Afmelden
    AAA
    Help
    🙂 🤣 😎 🤗 😛 😉 😜 🤑 🤔 😑 😴 😕 🙃 😲 😇 🙁 😢 😬 😟 😠 🕺 🏃 💪 ✌ 👌 👍 👎 👏 👋 🤝 🍺 🍻 🐋 🐟 🦈 🗽 🚄 ✈ 🛑 🚀 🏦 🌚 ⭐ 🌞 ⚡ 🏆 💰 💲 🔨 ❓ ❗ 💯 🔶 🏁
    ☺
    Aanmelden of Registreren en chat
    24 Uur
    Verandering
    +10.36%
    Volume
    202,947,601,781
    Hoog
    0.00000376
    Laag
    0.00000336
    7 Dagen
    Verandering
    -3.37%
    Volume
    1,620,371,323,215
    Hoog
    0.00000401
    Laag
    0.00000336
    30 Dagen
    Verandering
    +28.62%
    Volume
    5,213,540,696,437
    Hoog
    0.00000455
    Laag
    0.00000253
    DOGE, SHIB, PEPE, or Something Else: Which Meme Coin Can Make History in September? (3 AIs Weigh In)
    "DOGE remains the most likely to record the largest move in dollar terms and lead the entire sector," ChatGPT stated.
    cryptopotato.com
    Sept 3, 2026 00:41
    Pepe price rallies 25% as whale demand and futures interest surge
    Key takeaways Pepe has gained 25% this week, including a combined 22% advance over the previous two days. Seven whale transactions worth more than $1 million each occurred Thursday, the highest...
    coinjournal.net
    Aug 21, 2026 08:41
    PEPE Supply on Exchanges Just Took a Massive Hit – What’s Next?
    A drop in PEPE exchange balances has added to bullish expectations despite muted trader interest.
    cryptopotato.com
    Aug 6, 2026 20:02
    PEPE Exchange Outflows Hit Nearly 2-Year High as Whales Accumulate
    Pepe (PEPE) recorded its largest single-day exchange outflow since November 2024, with 4.54 trillion tokens leaving trading platforms, signaling that holders are moving supply away from immediate...
    beincrypto.com
    Aug 6, 2026 04:57
    Meme Coin Based on White House Shooter Conspiracy Rallies 320%
    $HENRY surged 300% after a 2023 Pepe tweet appeared to name the White House shooter, fueling a viral time-travel meme. The post Meme Coin Based on White House Shooter Conspiracy Rallies 320%...
    beincrypto.com
    Apr 27, 2026 16:11
    PEPE surges 4% as market sentiment improves, eyes Key resistance breakout
    Key takeaways Pepe extends gains on Wednesday, stretching its rally from the 50-day EMA. Derivatives data show heightened retail activity as risk-on sentiment returns to the market. Pepe (PEPE) is...
    coinjournal.net
    Apr 22, 2026 11:44
    Why The PEPE Price Could Stage A 55X Rally To Reach New $0.0001 ATH
    The PEPE price has now started to edge back into bullish conversations after the recent inflows into the crypto market. The last time PEPE’s weekly chart printed the kind of structure now...
    newsbtc.com
    Apr 21, 2026 15:30
    Pepe (PEPE) surges 9%, drawing interest from whales
    Key takeaways PEPE is up 9% in the last 24 hours, making it one of the best performers among the top 50 cryptocurrencies by market cap. The rally comes amid renewed interest from whales and retail...
    coinjournal.net
    Apr 16, 2026 07:40
    Murad Says SPX6900 (SPX) Is Primed for a Rally — Is He Right This Time?
    Crypto influencer Murad Mahmudov claims SPX6900 (SPX) is stabilizing at the same market cap level where Dogecoin (DOGE) and Pepe (PEPE) consolidated before their explosive rallies. The...
    beincrypto.com
    Apr 5, 2026 21:36
    The Shiba Inu Of This Cycle: Analyst Shares Why It Is Better To Buy PEPE Now
    In the bull market cycle of 2021-2022, the Shiba Inu meme coin made waves in a way that changed the face of meme coins forever. This came after Dogecoin’s initial 36,000% rally, and Shiba Inu...
    newsbtc.com
    Apr 4, 2026 07:30
    PEPE Explodes by 18% Amid Altcoin Rally, BTC Tapped $74K: Market Watch
    The frog-themed meme coin is today's biggest gainer, followed by TAO, DOT, and BONK.
    cryptopotato.com
    Mar 16, 2026 10:56
    Should PEPE traders brace for volatility as short squeeze potential builds?
    The memecoin market has seen its collective market capitalization drop by 48% over the past year, and 6.9% over the past month, according to CoinMarketCap. According to Glassnode, the memecoin...
    ambcrypto.com
    Mar 7, 2026 18:00
    Typ de opdracht simpelweg in de chat. Vervang nick1 door de echte nick
    • /ignore nick1 Negeer een chatgebruiker
    • /unignore nick1 Een chatgebruiker niet meer negeren
    • /ignorelist Toon chatgebruikers die je negeert